COSMOS 249 DEB *, 3908

Orbit data source: Space-Track

COSMOS 249 DEB *, 3908 is space debris in LEO originally from a launch on Sun, 20 Oct 1968 UTC launched from the Tyuratam Missile And Space Complex (TTMTR). Debris objects in space refer to the collection of defunct objects orbiting the Earth. Examples of debris include non-operational satellites, rocket bodies, and fragments generated from explosions, collisions, or faulty payload assembly.

Loading next visibility...
Identifier
3908, 1968-091BL
Orbit
LEO
Country
Flag of CISCIS
Related business
Manufacturer
Unknown
Mission
Spacecraft
Bus & Motor
Unknown
Mass
Unknown
Launch date (UTC)
1968-10-20 (58 years ago)
Launch vehicle
Unknown
Launch site
Tyuratam Missile And Space Complex (TTMTR)
Object type
Payload
Rocket body
Debris
Shape & HBR
Unknown shape, 0.1 m
Radar Cross Section
Medium (>0.1 m² and <1 m²)

Expand to show TLE details & history
Last TLE update: 1 day ago

TLE from 1 day ago
0 COSMOS 249 DEB *
1 03908U 68091BL  26235.25881381  .00001196  00000-0  86726-3 0  9997
2 03908  63.3394 158.8244 0602555  33.8266 119.4765 13.36610611790459
Epoch: 2026-08-23T06:12Z
TLE epoch observation values (Epoch: 2026-08-23T06:12:41.513Z)
Latitude
18.61274°
Longitude
-95.5928°
Altitude
1,365.31 km
Speed
7.061 km/s
True Right ascension
21h 56m 33s
True Declination
18° 31' 02"
Sunlit
Object was in full shadow at epoch
Visualization orbit readout
Latitude
Unknown
Longitude
Unknown
Altitude
Unknown
Speed
Unknown
Apparent Right ascension
Unknown
Apparent Declination
Unknown
Sunlit
N/A
Visualization observer readout
Local Sidereal Time
02:28:47
Azimuth
Unknown
Elevation
Unknown
Doppler factor
Unknown
Orbital elements
Apogee altitude
1,572.618 km
Perigee altitude
668.917 km
Semi-major axis
7,498.904 km
Eccentricity
0.06026
Inclination
63.3394°
RAAN
158.8244°
Arg. of periapsis
33.8266°
True anomaly
125.26259°
Mean anomaly
119.4765°
Eccentric anomaly
122.39171°
Mean motion
3.34231 °/min
Orbital period
107.71 mins
BSTAR
0.00086726
Loading maneuver chart data...
Computing Atmospheric mass density...
Loading historical data...
Loading historical data...
Loading historical data...
Loading historical data...
Loading historical data...
Loading historical data...
Loading historical data...

Documentation

Showing up to 5 results
|